Temperature
10 10 10 11 11 11 12 12 12 13 14 14 14 14 14 14 14 14 14 15 15 16 16 16 16 16 16 16 16 16 16 16 16 16 16 16 16 16
9 9 9 10 11 11 11 11 12 12 13 14 13 13 13 13 14 14 14 14 15 15 15 15 16 16 16 16 16 16 16 16 16 16 16 16 16 16
9 9 9 9 9 10 11 11 11 12 12 13 13 13 13 13 14 14 14 14 15 15 15 15 15 16 16 16 16 16 16 16 16 16 16 16 16 16
9 9 9 9 9 9 10 10 11 11 11 12 12 12 12 13 13 14 14 14 14 14 14 14 15 15 15 15 16 16 16 16 16 16 16 16 16 16
8 8 8 9 9 9 9 10 10 11 11 11 12 12 12 12 13 13 13 14 14 14 14 14 14 14 15 15 15 15 16 16 16 16 16 16 16 16
8 8 8 8 8 8 9 9 9 10 10 11 11 12 12 12 12 13 13 13 14 14 14 14 14 14 14 15 15 15 15 15 16 16 16 16 16 16
8 8 8 8 8 8 8 9 9 9 10 11 11 12 12 12 12 13 13 13 13 13 14 14 14 14 14 14 15 15 15 15 15 15 15 16 16 16
8 8 8 8 8 8 8 8 8 8 9 10 11 11 12 12 12 12 12 12 12 13 13 13 14 14 14 14 15 15 15 15 15 15 15 15 15 15
8 8 8 9 8 8 8 8 8 8 8 8 9 10 11 11 11 11 12 12 12 13 13 13 13 13 14 14 14 15 15 15 15 15 15 15 15 15
8 8 8 8 8 8 8 8 8 8 8 8 8 9 9 10 10 10 11 12 12 12 12 12 13 13 13 13 14 14 15 15 15 15 15 15 15 15
8 8 8 8 8 7 7 7 7 8 8 8 8 8 8 9 9 10 10 11 11 12 12 12 12 12 12 12 13 13 14 14 14 15 15 15 15 15
8 8 8 8 7 7 7 7 7 7 8 8 8 8 8 9 9 9 10 11 11 11 11 12 12 12 12 12 12 12 13 13 14 14 14 14 14 14
8 8 8 8 7 7 7 7 7 7 7 7 8 8 8 8 9 9 10 10 11 11 11 11 12 11 11 11 11 12 12 12 13 13 13 13 13 13
8 8 8 7 7 7 7 7 7 7 6 7 7 8 9 9 9 10 10 10 10 11 11 11 11 11 11 11 11 11 11 12 12 12 12 12 12 13
8 7 7 7 7 7 7 7 6 6 6 6 7 8 9 9 10 9 9 10 10 10 10 11 11 11 11 12 12 11 11 11 11 12 12 12 12 12
7 7 7 7 7 7 6 6 6 6 6 6 7 7 8 9 9 9 9 10 10 10 10 10 11 11 11 11 12 11 11 11 11 11 11 11 11 11
7 7 7 7 7 7 7 7 6 6 6 6 7 7 8 8 9 9 9 9 9 10 10 10 10 10 10 11 11 11 11 11 11 11 11 11 11 11
7 6 7 7 7 7 7 7 7 7 7 6 7 7 7 8 8 9 9 9 9 9 10 10 10 10 10 10 10 11 11 11 11 11 11 11 11 11
7 7 7 7 7 7 7 7 7 7 7 7 7 7 7 7 8 8 8 9 9 9 9 9 10 9 9 9 10 10 11 11 11 11 11 11 11 11
7 7 7 7 7 7 8 8 7 7 7 7 7 7 7 7 7 8 8 9 9 9 9 9 9 9 10 10 9 10 10 11 11 11 10 10 10 10
8 8 8 8 8 8 8 7 7 7 7 7 7 7 7 7 8 8 8 9 9 9 9 9 9 9 10 10 9 9 10 10 10 11 10 10 10 10
8 8 8 8 8 8 7 7 7 7 7 7 7 7 7 7 8 8 8 8 9 9 9 9 9 9 9 9 9 9 9 9 10 10 10 10 10 10
8 7 8 8 8 7 7 7 7 7 8 7 7 7 7 7 8 8 8 8 9 9 9 9 9 8 9 9 9 9 9 10 9 9 9 10 10 11
Wind_Speed
10 10 10 10 10 10 10 10 10 11 11 7 5 4 3 5 5 8 11 14 20 24 27 29 30 31 33 35 35 34 34 34 34 34 33 32 31 30
9 10 10 11 10 10 10 10 10 11 12 9 6 6 6 6 5 7 9 11 15 19 22 24 26 28 30 32 33 34 33 33 33 33 32 32 30 30
11 11 11 11 10 10 10 10 10 11 12 11 9 7 7 8 5 6 7 7 10 15 18 19 21 23 26 28 31 32 32 32 32 31 31 30 29 29
12 12 12 11 11 11 11 11 11 11 12 13 11 9 8 7 6 5 5 5 7 11 15 16 17 20 22 24 27 29 30 31 30 30 29 28 28 27
12 12 12 12 12 11 11 12 11 11 11 12 12 9 8 6 5 5 4 3 5 7 10 13 15 16 18 21 23 26 27 28 28 28 28 27 26 26
12 12 13 13 13 12 11 12 12 12 12 12 12 10 9 7 6 5 4 4 4 5 5 7 10 12 15 17 20 22 24 25 26 26 25 25 24 23
13 13 13 12 11 11 12 12 11 11 11 11 11 11 10 7 7 5 5 3 4 4 5 5 6 7 9 14 17 19 21 23 23 23 23 23 22 22
14 13 13 13 14 16 17 17 15 14 13 12 11 11 10 9 7 6 5 5 4 5 5 4 5 5 5 7 13 18 20 21 21 21 21 21 21 20
14 13 13 12 10 13 15 19 19 20 18 16 15 14 12 10 9 9 7 7 5 5 6 3 3 4 3 4 12 16 18 19 20 20 21 21 20 20
15 15 14 14 13 12 13 14 14 15 16 17 16 16 15 11 9 9 8 6 4 4 5 3 3 2 3 4 9 12 15 18 19 20 21 21 21 21
15 15 14 14 10 8 12 15 15 15 14 14 14 14 11 9 8 9 8 7 6 5 4 3 4 3 2 3 5 10 13 16 19 20 21 22 23 21
13 13 13 15 9 7 12 14 15 15 14 13 15 16 17 16 14 13 12 10 7 5 5 5 5 4 3 2 2 5 8 12 17 20 22 25 26 17
12 11 9 11 12 11 12 14 14 13 13 14 13 14 14 14 15 16 14 12 10 6 7 7 6 5 4 4 2 2 5 6 8 11 19 23 19 14
12 12 7 7 9 10 11 13 12 11 13 13 13 13 13 13 14 15 15 14 11 7 9 8 6 7 6 6 4 3 3 5 7 7 10 12 9 11
12 11 8 5 8 11 16 15 12 12 12 13 14 14 13 13 12 12 13 13 11 9 10 9 7 8 7 6 8 6 4 3 5 8 8 8 8 10
13 12 14 15 14 13 10 12 12 12 12 13 13 13 12 12 12 12 12 12 10 8 9 11 9 10 7 7 10 10 8 7 7 8 9 8 9 11
8 10 10 10 10 11 11 11 11 11 12 13 12 12 12 12 12 12 12 11 12 11 9 6 6 6 4 6 9 11 11 9 9 9 8 8 7 8
9 11 12 11 11 11 10 10 10 11 12 12 12 13 13 13 12 12 12 13 13 12 11 9 7 5 3 2 2 11 10 10 10 11 9 9 9 8
10 12 12 11 11 11 10 10 10 10 11 11 12 12 12 12 12 13 13 13 13 12 12 11 11 10 10 8 3 4 10 11 11 10 10 8 10 10
11 12 12 11 11 11 11 10 10 9 10 11 11 12 12 12 12 13 13 14 14 13 12 12 13 13 13 11 8 6 10 12 12 12 10 7 6 9
10 11 12 12 11 10 10 10 10 9 10 10 11 11 12 12 12 13 13 14 14 13 14 14 13 11 7 7 8 8 10 9 8 9 12 11 10 10
10 11 11 11 10 10 10 10 10 10 10 10 10 11 11 11 12 13 13 13 14 14 14 12 13 12 9 10 11 11 11 10 5 7 7 3 8 11
10 10 10 10 10 9 10 11 12 10 10 10 10 10 10 11 11 11 12 13 13 14 13 13 12 12 11 10 10 10 14 14 10 9 7 4 6 8
Wind_Direction
274 267 265 274 270 270 271 273 279 284 284 285 272 269 282 277 259 249 244 232 223 220 218 217 216 213 212 212 213 214 216 219 218 218 218 218 218 220
268 277 278 275 277 274 270 268 267 272 279 284 279 288 300 296 267 262 249 234 222 217 216 216 216 216 214 212 211 212 213 215 216 216 216 216 217 219
268 266 264 271 275 277 272 268 266 266 270 276 276 282 287 289 286 268 255 233 221 213 212 212 213 214 214 212 210 210 211 212 212 212 212 213 215 218
266 267 266 265 263 266 271 271 269 270 271 275 278 279 274 281 281 274 257 230 217 210 209 211 212 213 212 211 209 208 208 207 207 208 209 211 213 216
266 265 265 265 265 266 267 268 269 265 264 269 271 271 272 267 269 262 249 225 204 192 202 207 209 211 211 208 206 205 204 203 203 204 205 207 209 211
265 264 263 261 260 262 264 262 265 269 266 264 266 264 260 259 253 248 237 214 195 176 179 185 193 201 205 203 202 200 200 199 199 200 201 202 204 205
266 262 260 259 269 270 271 272 269 263 263 260 260 261 256 252 252 246 237 220 201 182 172 177 175 185 193 197 197 195 195 194 193 194 195 196 197 197
269 267 264 251 242 237 248 260 269 270 270 271 265 262 264 259 258 254 241 222 215 190 177 173 177 173 180 189 183 185 188 187 187 187 188 188 189 188
269 267 266 265 249 251 237 233 244 247 253 264 269 271 272 262 262 255 242 238 232 184 171 160 160 159 144 134 159 173 179 180 181 182 181 180 179 177
265 264 264 267 264 262 262 256 251 244 237 239 250 260 265 275 271 264 259 248 237 189 175 157 139 120 108 112 144 163 170 172 172 173 171 169 167 164
264 263 262 263 255 237 257 263 263 259 247 242 257 265 286 294 285 269 252 231 220 194 181 157 137 109 91 92 111 143 158 162 163 161 159 158 154 149
267 263 250 244 253 224 249 256 258 258 259 246 233 241 249 248 240 245 247 237 220 195 178 164 148 139 125 86 99 126 136 146 152 154 153 152 151 148
274 273 270 198 212 222 241 255 260 269 266 259 252 244 238 236 233 227 229 235 227 210 176 170 159 159 147 136 108 99 125 136 134 140 150 155 160 159
273 275 279 161 198 222 237 249 254 260 257 256 252 246 240 234 229 226 221 224 228 215 179 174 166 168 158 150 142 123 108 128 135 135 139 139 131 134
265 280 294 258 245 243 238 238 239 241 242 243 244 244 242 239 234 224 221 220 217 206 185 185 175 172 177 165 155 151 139 131 142 143 148 155 153 149
255 255 236 239 244 257 252 226 230 236 236 238 241 244 243 236 230 226 218 208 204 198 190 189 185 178 185 176 164 164 158 154 158 157 154 158 167 171
300 275 266 256 243 240 242 239 233 228 230 237 240 239 238 237 231 222 219 209 204 195 185 180 174 165 165 172 170 168 162 156 160 159 157 157 170 175
271 263 263 260 256 252 248 243 235 231 231 232 232 234 233 231 229 223 216 212 207 198 186 174 159 138 115 48 190 170 166 162 161 166 169 163 169 179
243 254 257 257 257 257 252 249 246 237 230 230 231 230 229 228 227 222 216 211 207 199 187 176 176 174 176 182 193 204 170 162 159 169 179 177 175 174
240 250 254 253 252 251 251 251 250 242 232 229 230 229 226 225 224 221 216 211 204 198 188 184 187 190 191 183 169 179 179 165 166 170 175 173 136 115
249 251 253 254 251 247 246 250 249 243 234 229 230 229 226 224 223 221 218 211 206 198 194 192 189 180 169 153 154 162 171 170 170 173 170 163 159 167
263 262 260 257 253 248 247 246 245 240 235 231 229 226 224 224 224 222 217 210 206 203 198 187 173 173 179 179 175 165 163 164 141 131 128 114 180 184
266 266 264 259 251 245 245 244 243 240 234 231 226 224 222 221 221 220 219 214 206 199 191 180 174 179 184 183 176 168 165 164 163 165 163 59 59 97
Height
1505 1505 1503 1503 1502 1501 1500 1500 1499 1495 1492 1491 1490 1488 1487 1486 1486 1487 1488 1491 1495 1498 1503 1508 1513 1518 1524 1529 1535 1540 1545 1550 1555 1560 1564 1568 1572 1575
1500 1499 1498 1498 1498 1497 1496 1495 1494 1493 1490 1488 1487 1485 1483 1483 1483 1483 1484 1485 1487 1490 1494 1499 1504 1509 1515 1520 1526 1531 1537 1542 1547 1552 1557 1561 1565 1569
1495 1495 1493 1492 1492 1492 1492 1491 1490 1489 1486 1485 1484 1482 1480 1479 1479 1479 1479 1480 1481 1484 1487 1491 1495 1500 1505 1511 1516 1523 1529 1534 1540 1545 1549 1554 1559 1563
1490 1489 1488 1488 1487 1486 1486 1486 1485 1484 1483 1481 1480 1479 1477 1476 1475 1475 1475 1475 1477 1479 1482 1485 1489 1493 1497 1502 1508 1514 1520 1526 1532 1538 1543 1548 1552 1556
1485 1484 1483 1482 1481 1481 1481 1480 1480 1479 1478 1477 1476 1475 1474 1473 1472 1472 1471 1471 1473 1474 1477 1480 1483 1486 1490 1495 1500 1506 1513 1520 1525 1531 1536 1541 1545 1550
1479 1478 1477 1477 1476 1476 1475 1475 1475 1474 1474 1473 1472 1471 1470 1469 1469 1468 1468 1468 1469 1470 1472 1475 1478 1481 1484 1488 1494 1500 1506 1513 1519 1524 1529 1535 1539 1544
1474 1472 1472 1471 1470 1470 1470 1470 1470 1470 1469 1468 1467 1467 1466 1466 1465 1465 1465 1465 1466 1466 1468 1471 1473 1476 1479 1484 1489 1494 1500 1506 1512 1518 1523 1529 1534 1538
1468 1467 1466 1464 1463 1462 1462 1463 1463 1464 1464 1464 1463 1463 1462 1462 1462 1462 1462 1462 1462 1463 1465 1467 1469 1471 1475 1479 1484 1490 1495 1501 1507 1512 1518 1523 1528 1533
1462 1460 1460 1460 1458 1458 1456 1455 1455 1456 1457 1457 1457 1458 1458 1459 1458 1458 1458 1458 1459 1459 1461 1463 1465 1468 1471 1474 1479 1485 1491 1496 1502 1507 1513 1518 1523 1528
1455 1454 1453 1452 1452 1452 1451 1451 1450 1450 1450 1450 1450 1451 1453 1453 1453 1453 1453 1455 1455 1456 1458 1460 1462 1465 1468 1471 1475 1481 1486 1492 1497 1503 1508 1513 1519 1523
1449 1448 1446 1446 1445 1444 1444 1444 1444 1444 1444 1443 1444 1444 1445 1447 1448 1449 1450 1451 1452 1452 1454 1457 1459 1462 1465 1468 1472 1477 1482 1488 1493 1499 1504 1509 1514 1519
1443 1441 1439 1439 1438 1437 1437 1437 1436 1437 1438 1438 1437 1437 1438 1439 1441 1443 1445 1447 1447 1448 1450 1454 1456 1460 1464 1466 1470 1474 1479 1484 1490 1495 1500 1505 1510 1514
1437 1436 1435 1432 1431 1431 1430 1430 1430 1430 1430 1431 1431 1432 1432 1433 1435 1437 1439 1442 1443 1444 1446 1450 1453 1457 1461 1464 1467 1472 1477 1481 1486 1491 1497 1502 1506 1511
1431 1430 1429 1426 1425 1424 1423 1423 1422 1422 1423 1424 1425 1425 1426 1427 1429 1431 1433 1435 1438 1440 1443 1446 1449 1453 1457 1461 1465 1469 1474 1479 1484 1488 1493 1498 1503 1507
1424 1423 1422 1420 1418 1417 1416 1416 1416 1415 1416 1417 1417 1418 1420 1421 1423 1425 1427 1430 1433 1435 1438 1441 1445 1449 1454 1457 1461 1466 1471 1476 1481 1486 1490 1495 1499 1504
1417 1416 1414 1413 1411 1411 1410 1409 1408 1409 1409 1410 1411 1412 1414 1415 1416 1419 1421 1424 1427 1430 1433 1437 1441 1446 1450 1454 1458 1463 1468 1472 1477 1483 1488 1492 1497 1501
1412 1411 1409 1408 1406 1404 1404 1403 1403 1402 1402 1403 1404 1405 1407 1408 1410 1413 1415 1418 1421 1424 1428 1432 1436 1441 1446 1450 1455 1459 1464 1469 1474 1479 1484 1489 1494 1498
1405 1404 1403 1401 1400 1399 1398 1397 1396 1396 1396 1396 1397 1399 1400 1402 1404 1407 1409 1412 1415 1418 1422 1426 1431 1436 1441 1446 1451 1456 1460 1465 1470 1476 1481 1486 1490 1495
1398 1397 1396 1395 1393 1393 1392 1391 1390 1390 1390 1390 1391 1392 1394 1396 1398 1400 1403 1406 1409 1413 1417 1421 1425 1430 1435 1440 1445 1451 1456 1461 1466 1472 1477 1482 1487 1492
1391 1390 1389 1388 1387 1386 1386 1385 1384 1384 1383 1383 1384 1386 1387 1389 1392 1394 1397 1400 1403 1408 1411 1415 1419 1424 1429 1435 1440 1445 1452 1456 1462 1467 1473 1479 1484 1488
1386 1384 1382 1381 1381 1380 1379 1379 1379 1378 1378 1378 1379 1380 1382 1384 1386 1388 1391 1394 1398 1402 1405 1409 1414 1420 1426 1432 1436 1440 1447 1452 1458 1463 1469 1474 1478 1482
1379 1378 1376 1375 1374 1373 1373 1373 1373 1372 1372 1372 1373 1374 1376 1378 1381 1383 1386 1389 1392 1396 1401 1406 1410 1415 1421 1426 1430 1435 1441 1447 1453 1459 1465 1470 1473 1478
1373 1371 1370 1369 1368 1367 1367 1367 1367 1367 1367 1367 1368 1370 1371 1373 1375 1378 1381 1384 1388 1392 1396 1401 1405 1411 1416 1421 1426 1431 1436 1441 1447 1453 1460 1465 1470 1475